Time,TemperatureF,DewpointF,PressureIn,WindDirection,WindDirectionDegrees,WindSpeedMPH,WindSpeedGustMPH,Humidity,HourlyPrecipIn,Conditions,Clouds,dailyrainin,SolarRadiationWatts/m^2,SoftwareType,DateUTC
2013-02-20 00:04:00,27.4,25.6,29.90,ESE,107,0.0,0.0,93,0.00,,,0.00,0,Wunderground v.1.15,2013-02-20 07:04:00,
2013-02-20 00:10:00,27.4,25.6,29.91,ESE,107,0.0,0.0,93,0.00,,,0.00,0,Wunderground v.1.15,2013-02-20 07:10:00,
2013-02-20 00:16:00,27.4,25.6,29.91,ESE,107,0.0,0.0,93,0.00,,,0.00,0,Wunderground v.1.15,2013-02-20 07:16:00,
2013-02-20 00:22:00,27.4,25.6,29.91,ESE,107,0.0,0.0,93,0.00,,,0.00,0,Wunderground v.1.15,2013-02-20 07:22:00,
2013-02-20 00:28:00,27.4,25.6,29.91,ESE,107,0.0,0.0,93,0.00,,,0.00,0,Wunderground v.1.15,2013-02-20 07:28:00,
2013-02-20 00:34:00,27.5,25.7,29.90,ESE,107,0.0,0.0,93,0.00,,,0.00,0,Wunderground v.1.15,2013-02-20 07:34:00,
2013-02-20 00:40:00,27.5,25.7,29.90,ESE,107,0.0,0.0,93,0.00,,,0.00,0,Wunderground v.1.15,2013-02-20 07:40:00,
2013-02-20 00:46:00,27.5,25.7,29.90,ESE,107,0.0,0.0,93,0.00,,,0.00,0,Wunderground v.1.15,2013-02-20 07:46:00,
2013-02-20 00:52:00,27.5,25.7,29.90,ESE,107,0.0,0.0,93,0.00,,,0.00,0,Wunderground v.1.15,2013-02-20 07:52:00,
2013-02-20 00:57:00,27.5,25.7,29.90,ESE,107,0.0,0.0,93,0.00,,,0.00,0,Wunderground v.1.15,2013-02-20 07:57:00,
2013-02-20 01:05:00,27.5,25.7,29.90,ESE,107,0.0,0.0,93,0.00,,,0.00,0,Wunderground v.1.15,2013-02-20 08:05:00,
2013-02-20 01:10:00,27.4,25.6,29.90,ESE,107,0.0,0.0,93,0.00,,,0.00,0,Wunderground v.1.15,2013-02-20 08:10:00,
2013-02-20 01:16:00,27.4,25.6,29.90,ESE,107,0.0,0.0,93,0.00,,,0.00,0,Wunderground v.1.15,2013-02-20 08:16:00,
2013-02-20 01:22:00,27.4,25.6,29.90,ESE,107,0.0,0.0,93,0.00,,,0.00,0,Wunderground v.1.15,2013-02-20 08:22:00,
2013-02-20 01:28:00,27.3,25.5,29.90,ESE,107,0.0,0.0,93,0.00,,,0.00,0,Wunderground v.1.15,2013-02-20 08:28:00,
2013-02-20 01:34:00,27.3,25.5,29.90,ESE,107,0.0,0.0,93,0.00,,,0.00,0,Wunderground v.1.15,2013-02-20 08:34:00,
2013-02-20 01:40:00,27.2,25.4,29.90,ESE,107,0.0,0.0,93,0.00,,,0.00,0,Wunderground v.1.15,2013-02-20 08:40:00,
2013-02-20 01:46:00,27.2,25.7,29.90,ESE,107,0.0,0.0,94,0.00,,,0.00,0,Wunderground v.1.15,2013-02-20 08:46:00,
2013-02-20 01:52:00,27.2,25.7,29.90,ESE,107,0.0,0.0,94,0.00,,,0.00,0,Wunderground v.1.15,2013-02-20 08:52:00,
2013-02-20 01:58:00,27.1,25.6,29.90,ESE,107,0.0,0.0,94,0.00,,,0.00,0,Wunderground v.1.15,2013-02-20 08:58:00,
2013-02-20 02:04:00,27.1,25.6,29.90,ESE,107,0.0,0.0,94,0.00,,,0.00,0,Wunderground v.1.15,2013-02-20 09:04:00,
2013-02-20 02:10:00,27.1,25.3,29.90,ESE,107,0.0,0.0,93,0.00,,,0.00,0,Wunderground v.1.15,2013-02-20 09:10:00,
2013-02-20 02:16:00,27.1,25.6,29.90,ESE,107,0.0,0.0,94,0.00,,,0.00,0,Wunderground v.1.15,2013-02-20 09:16:00,
2013-02-20 02:22:00,27.1,25.6,29.91,ESE,107,0.0,0.0,94,0.00,,,0.00,0,Wunderground v.1.15,2013-02-20 09:22:00,
2013-02-20 02:27:00,27.1,25.6,29.91,ESE,107,0.0,0.0,94,0.00,,,0.00,0,Wunderground v.1.15,2013-02-20 09:27:00,
2013-02-20 02:32:00,27.1,25.3,29.91,ESE,107,0.0,0.0,93,0.00,,,0.00,0,Wunderground v.1.15,2013-02-20 09:32:00,
2013-02-20 02:38:00,27.0,25.2,29.90,ESE,107,0.0,0.0,93,0.00,,,0.00,0,Wunderground v.1.15,2013-02-20 09:38:00,
2013-02-20 02:44:00,27.0,25.5,29.91,ESE,107,0.0,0.0,94,0.00,,,0.00,0,Wunderground v.1.15,2013-02-20 09:44:00,
2013-02-20 02:50:00,27.0,25.5,29.90,ESE,107,0.0,0.0,94,0.00,,,0.00,0,Wunderground v.1.15,2013-02-20 09:50:00,
2013-02-20 02:56:00,26.9,25.4,29.91,ESE,107,0.0,0.0,94,0.00,,,0.00,0,Wunderground v.1.15,2013-02-20 09:56:00,
2013-02-20 03:02:00,26.9,25.4,29.91,ESE,107,0.0,0.0,94,0.00,,,0.00,0,Wunderground v.1.15,2013-02-20 10:02:00,
2013-02-20 03:08:00,26.9,25.4,29.91,ESE,107,0.0,0.0,94,0.00,,,0.00,0,Wunderground v.1.15,2013-02-20 10:08:00,
2013-02-20 03:14:00,26.9,25.4,29.91,ESE,107,0.0,0.0,94,0.00,,,0.00,0,Wunderground v.1.15,2013-02-20 10:14:00,
2013-02-20 03:20:00,27.0,25.5,29.91,ESE,107,0.0,0.0,94,0.00,,,0.00,0,Wunderground v.1.15,2013-02-20 10:20:00,
2013-02-20 03:26:00,27.0,25.5,29.91,ESE,107,0.0,0.0,94,0.00,,,0.00,0,Wunderground v.1.15,2013-02-20 10:26:00,
2013-02-20 03:32:00,27.0,25.5,29.91,ESE,107,0.0,0.0,94,0.00,,,0.00,0,Wunderground v.1.15,2013-02-20 10:32:00,
2013-02-20 03:38:00,27.0,25.5,29.90,ESE,107,0.0,0.0,94,0.00,,,0.00,0,Wunderground v.1.15,2013-02-20 10:38:00,
2013-02-20 03:44:00,27.0,25.5,29.90,ESE,107,0.0,0.0,94,0.00,,,0.00,0,Wunderground v.1.15,2013-02-20 10:44:00,
2013-02-20 03:49:00,27.0,25.5,29.90,ESE,107,0.0,0.0,94,0.00,,,0.00,0,Wunderground v.1.15,2013-02-20 10:49:00,
2013-02-20 03:54:00,27.0,25.5,29.90,ESE,107,0.0,0.0,94,0.00,,,0.00,0,Wunderground v.1.15,2013-02-20 10:54:00,
2013-02-20 04:00:00,27.0,25.5,29.91,ESE,107,0.0,0.0,94,0.00,,,0.00,0,Wunderground v.1.15,2013-02-20 11:00:00,
2013-02-20 04:06:00,27.1,25.6,29.91,ESE,107,0.0,0.0,94,0.00,,,0.00,0,Wunderground v.1.15,2013-02-20 11:06:00,
2013-02-20 04:12:00,27.1,25.6,29.91,ESE,107,0.0,0.0,94,0.00,,,0.00,0,Wunderground v.1.15,2013-02-20 11:12:00,
2013-02-20 04:18:00,27.2,25.7,29.91,ESE,107,0.0,0.0,94,0.00,,,0.00,0,Wunderground v.1.15,2013-02-20 11:18:00,
2013-02-20 04:24:00,27.2,25.7,29.91,ESE,107,0.0,0.0,94,0.00,,,0.00,0,Wunderground v.1.15,2013-02-20 11:24:00,
2013-02-20 04:30:00,27.2,25.7,29.91,ESE,107,0.0,0.0,94,0.00,,,0.00,0,Wunderground v.1.15,2013-02-20 11:30:00,
2013-02-20 04:36:00,27.2,25.7,29.92,ESE,107,0.0,0.0,94,0.00,,,0.00,0,Wunderground v.1.15,2013-02-20 11:36:00,
2013-02-20 04:42:00,27.3,25.8,29.91,ESE,107,0.0,0.0,94,0.00,,,0.00,0,Wunderground v.1.15,2013-02-20 11:42:00,
2013-02-20 04:48:00,27.3,25.8,29.91,ESE,107,0.0,0.0,94,0.00,,,0.00,0,Wunderground v.1.15,2013-02-20 11:48:00,
2013-02-20 04:54:00,27.3,25.8,29.91,ESE,107,0.0,0.0,94,0.00,,,0.00,0,Wunderground v.1.15,2013-02-20 11:54:00,
2013-02-20 04:59:00,27.4,25.9,29.91,ESE,107,0.0,0.0,94,0.00,,,0.00,0,Wunderground v.1.15,2013-02-20 11:59:00,
2013-02-20 05:05:00,27.4,26.2,29.91,ESE,107,0.0,0.0,95,0.00,,,0.00,0,Wunderground v.1.15,2013-02-20 12:05:00,
2013-02-20 05:11:00,27.4,25.9,29.91,ESE,107,0.0,0.0,94,0.00,,,0.00,0,Wunderground v.1.15,2013-02-20 12:11:00,
2013-02-20 05:17:00,27.4,25.9,29.92,ESE,107,0.0,0.0,94,0.00,,,0.00,0,Wunderground v.1.15,2013-02-20 12:17:00,
2013-02-20 05:23:00,27.4,25.9,29.92,ESE,107,0.0,0.0,94,0.00,,,0.00,0,Wunderground v.1.15,2013-02-20 12:23:00,
2013-02-20 05:29:00,27.4,25.9,29.91,ESE,107,0.0,0.0,94,0.00,,,0.00,0,Wunderground v.1.15,2013-02-20 12:29:00,
2013-02-20 05:35:00,27.4,26.2,29.92,ESE,107,0.0,0.0,95,0.00,,,0.00,0,Wunderground v.1.15,2013-02-20 12:35:00,
2013-02-20 05:41:00,27.4,26.2,29.92,ESE,107,0.0,0.0,95,0.00,,,0.00,0,Wunderground v.1.15,2013-02-20 12:41:00,
2013-02-20 05:46:00,27.4,26.2,29.92,ESE,107,0.0,0.0,95,0.00,,,0.00,0,Wunderground v.1.15,2013-02-20 12:46:00,
2013-02-20 05:52:00,27.4,26.2,29.92,ESE,107,0.0,0.0,95,0.00,,,0.00,0,Wunderground v.1.15,2013-02-20 12:52:00,
2013-02-20 05:58:00,27.5,26.3,29.92,ESE,107,0.0,0.0,95,0.00,,,0.00,0,Wunderground v.1.15,2013-02-20 12:58:00,
2013-02-20 06:04:00,27.5,26.3,29.92,ESE,107,0.0,0.0,95,0.00,,,0.00,0,Wunderground v.1.15,2013-02-20 13:04:00,
2013-02-20 06:10:00,27.5,26.3,29.92,ESE,107,0.0,0.0,95,0.00,,,0.00,0,Wunderground v.1.15,2013-02-20 13:10:00,
2013-02-20 06:16:00,27.6,26.4,29.92,ESE,107,0.0,0.0,95,0.00,,,0.00,0,Wunderground v.1.15,2013-02-20 13:16:00,
2013-02-20 06:21:00,27.7,26.5,29.92,ESE,107,0.0,0.0,95,0.00,,,0.00,0,Wunderground v.1.15,2013-02-20 13:21:00,
2013-02-20 06:27:00,27.7,26.5,29.92,ESE,107,0.0,0.0,95,0.00,,,0.00,0,Wunderground v.1.15,2013-02-20 13:27:00,
2013-02-20 06:33:00,27.7,26.5,29.92,ESE,107,0.0,0.0,95,0.00,,,0.00,0,Wunderground v.1.15,2013-02-20 13:33:00,
2013-02-20 06:39:00,27.8,26.6,29.93,ESE,107,0.0,5.0,95,0.00,,,0.00,0,Wunderground v.1.15,2013-02-20 13:39:00,
2013-02-20 06:45:00,28.0,26.8,29.92,South,181,1.0,3.0,95,0.00,,,0.00,0,Wunderground v.1.15,2013-02-20 13:45:00,
2013-02-20 06:51:00,28.1,26.9,29.93,NW,315,1.0,1.0,95,0.00,,,0.00,0,Wunderground v.1.15,2013-02-20 13:51:00,
2013-02-20 06:57:00,28.3,27.1,29.93,WSW,250,1.0,4.0,95,0.00,,,0.00,0,Wunderground v.1.15,2013-02-20 13:57:00,
2013-02-20 07:03:00,28.5,27.3,29.93,SW,227,1.0,1.0,95,0.00,,,0.00,0,Wunderground v.1.15,2013-02-20 14:03:00,
2013-02-20 07:09:00,28.6,27.4,29.93,SSW,193,1.0,4.0,95,0.00,,,0.00,0,Wunderground v.1.15,2013-02-20 14:09:00,
2013-02-20 07:15:00,28.7,27.4,29.93,WSW,251,0.0,1.0,95,0.00,,,0.00,0,Wunderground v.1.15,2013-02-20 14:15:00,
2013-02-20 07:21:00,28.7,27.4,29.93,WSW,251,0.0,1.0,95,0.00,,,0.00,0,Wunderground v.1.15,2013-02-20 14:21:00,
2013-02-20 07:27:00,28.8,27.5,29.93,WSW,256,0.0,4.0,95,0.00,,,0.00,0,Wunderground v.1.15,2013-02-20 14:27:00,
2013-02-20 07:33:00,28.8,27.5,29.93,West,281,1.0,5.0,95,0.00,,,0.00,0,Wunderground v.1.15,2013-02-20 14:33:00,
2013-02-20 07:39:00,28.9,27.6,29.93,West,269,1.0,5.0,95,0.00,,,0.00,0,Wunderground v.1.15,2013-02-20 14:39:00,
2013-02-20 07:45:00,28.9,27.6,29.93,West,269,0.0,1.0,95,0.00,,,0.00,0,Wunderground v.1.15,2013-02-20 14:45:00,
2013-02-20 07:51:00,28.9,27.6,29.94,West,269,0.0,0.0,95,0.00,,,0.00,0,Wunderground v.1.15,2013-02-20 14:51:00,
2013-02-20 07:57:00,28.8,27.5,29.93,West,269,0.0,0.0,95,0.00,,,0.00,0,Wunderground v.1.15,2013-02-20 14:57:00,
2013-02-20 08:02:00,28.8,27.5,29.93,North,351,0.0,1.0,95,0.00,,,0.00,0,Wunderground v.1.15,2013-02-20 15:02:00,
2013-02-20 08:08:00,28.8,27.5,29.93,North,351,0.0,1.0,95,0.00,,,0.00,5,Wunderground v.1.15,2013-02-20 15:08:00,
2013-02-20 08:14:00,28.8,27.5,29.94,North,355,0.0,0.0,95,0.00,,,0.00,5,Wunderground v.1.15,2013-02-20 15:14:00,
2013-02-20 08:20:00,28.7,27.4,29.94,North,351,0.0,0.0,95,0.00,,,0.00,7,Wunderground v.1.15,2013-02-20 15:20:00,
2013-02-20 08:26:00,28.8,27.5,29.94,North,355,0.0,0.0,95,0.00,,,0.00,9,Wunderground v.1.15,2013-02-20 15:26:00,
2013-02-20 08:32:00,28.8,27.5,29.94,North,351,0.0,0.0,95,0.00,,,0.00,12,Wunderground v.1.15,2013-02-20 15:32:00,
2013-02-20 08:38:00,28.8,27.5,29.94,North,351,0.0,0.0,95,0.00,,,0.00,16,Wunderground v.1.15,2013-02-20 15:38:00,
2013-02-20 08:44:00,28.9,27.6,29.94,ENE,63,0.0,3.0,95,0.00,,,0.00,16,Wunderground v.1.15,2013-02-20 15:44:00,
2013-02-20 08:50:00,29.0,27.7,29.94,SW,233,0.0,0.0,95,0.00,,,0.00,21,Wunderground v.1.15,2013-02-20 15:50:00,
2013-02-20 08:56:00,29.2,27.9,29.94,SSW,200,0.0,2.0,95,0.00,,,0.00,19,Wunderground v.1.15,2013-02-20 15:56:00,
2013-02-20 09:02:00,29.4,28.1,29.95,SSW,200,0.0,0.0,95,0.00,,,0.00,11,Wunderground v.1.15,2013-02-20 16:02:00,
2013-02-20 09:08:00,29.6,28.3,29.95,SW,236,0.0,3.0,95,0.00,,,0.00,21,Wunderground v.1.15,2013-02-20 16:08:00,
2013-02-20 09:14:00,29.7,28.4,29.94,South,191,1.0,5.0,95,0.00,,,0.00,30,Wunderground v.1.15,2013-02-20 16:14:00,
2013-02-20 09:19:00,29.9,28.4,29.94,South,191,1.0,5.0,94,0.00,,,0.00,37,Wunderground v.1.15,2013-02-20 16:19:00,
2013-02-20 09:25:00,30.2,28.7,29.94,South,191,0.0,3.0,94,0.00,,,0.00,37,Wunderground v.1.15,2013-02-20 16:25:00,
2013-02-20 09:31:00,30.5,29.0,29.94,NW,305,1.0,1.0,94,0.00,,,0.00,40,Wunderground v.1.15,2013-02-20 16:31:00,
2013-02-20 09:37:00,30.7,28.9,29.94,NW,304,0.0,2.0,93,0.00,,,0.00,44,Wunderground v.1.15,2013-02-20 16:37:00,
2013-02-20 09:43:00,30.9,29.1,29.94,ENE,73,1.0,1.0,93,0.00,,,0.00,44,Wunderground v.1.15,2013-02-20 16:43:00,
2013-02-20 09:49:00,31.1,29.3,29.94,ENE,73,0.0,1.0,93,0.00,,,0.00,40,Wunderground v.1.15,2013-02-20 16:49:00,
2013-02-20 09:54:00,31.1,29.0,29.94,ENE,73,0.0,2.0,92,0.00,,,0.00,44,Wunderground v.1.15,2013-02-20 16:54:00,
2013-02-20 10:00:00,31.1,29.0,29.94,ENE,72,0.0,0.0,92,0.00,,,0.00,47,Wunderground v.1.15,2013-02-20 17:00:00,
2013-02-20 10:06:00,31.2,29.1,29.94,WNW,284,1.0,5.0,92,0.00,,,0.00,51,Wunderground v.1.15,2013-02-20 17:06:00,
2013-02-20 10:12:00,31.3,29.0,29.94,SW,218,2.0,2.0,91,0.00,,,0.00,62,Wunderground v.1.15,2013-02-20 17:12:00,
2013-02-20 10:18:00,31.5,28.9,29.94,SSE,150,1.0,3.0,90,0.00,,,0.00,56,Wunderground v.1.15,2013-02-20 17:18:00,
2013-02-20 10:24:00,31.7,28.8,29.94,SE,145,2.0,9.0,89,0.00,,,0.00,83,Wunderground v.1.15,2013-02-20 17:24:00,
2013-02-20 10:30:00,32.1,29.2,29.94,WSW,242,2.0,3.0,89,0.00,,,0.00,100,Wunderground v.1.15,2013-02-20 17:30:00,
2013-02-20 10:36:00,32.6,29.4,29.94,West,259,3.0,5.0,88,0.00,,,0.00,142,Wunderground v.1.15,2013-02-20 17:36:00,
2013-02-20 10:42:00,33.1,29.7,29.94,NNW,336,2.0,3.0,87,0.00,,,0.00,114,Wunderground v.1.15,2013-02-20 17:42:00,
2013-02-20 10:47:00,33.7,29.7,29.94,East,101,1.0,9.0,85,0.00,,,0.00,163,Wunderground v.1.15,2013-02-20 17:47:00,
2013-02-20 10:53:00,34.1,29.5,29.94,NW,311,3.0,3.0,83,0.00,,,0.00,141,Wunderground v.1.15,2013-02-20 17:53:00,
2013-02-20 10:59:00,34.4,29.8,29.94,North,10,3.0,6.0,83,0.00,,,0.00,206,Wunderground v.1.15,2013-02-20 17:59:00,
2013-02-20 11:05:00,34.4,29.8,29.94,West,281,2.0,6.0,83,0.00,,,0.00,221,Wunderground v.1.15,2013-02-20 18:05:00,
2013-02-20 11:11:00,34.4,29.8,29.94,SSE,166,2.0,2.0,83,0.00,,,0.00,248,Wunderground v.1.15,2013-02-20 18:11:00,
2013-02-20 11:17:00,34.8,30.2,29.94,WNW,288,2.0,6.0,83,0.00,,,0.00,434,Wunderground v.1.15,2013-02-20 18:17:00,
2013-02-20 11:23:00,35.0,30.1,29.94,NW,304,3.0,6.0,82,0.00,,,0.00,480,Wunderground v.1.15,2013-02-20 18:23:00,
2013-02-20 11:29:00,35.1,29.9,29.94,WNW,294,3.0,9.0,81,0.00,,,0.00,520,Wunderground v.1.15,2013-02-20 18:29:00,
2013-02-20 11:35:00,35.3,29.4,29.94,SE,143,3.0,10.0,79,0.00,,,0.00,615,Wunderground v.1.15,2013-02-20 18:35:00,
2013-02-20 11:41:00,36.0,29.8,29.94,WNW,296,4.0,7.0,78,0.22,,,0.03,578,Wunderground v.1.15,2013-02-20 18:41:00,
2013-02-20 11:47:00,35.8,29.6,29.94,WNW,282,4.0,10.0,78,0.12,,,0.04,608,Wunderground v.1.15,2013-02-20 18:47:00,
2013-02-20 11:53:00,35.9,29.7,29.94,West,279,4.0,5.0,78,0.08,,,0.05,598,Wunderground v.1.15,2013-02-20 18:53:00,
2013-02-20 11:59:00,36.7,29.5,29.94,South,187,2.0,5.0,75,0.08,,,0.05,617,Wunderground v.1.15,2013-02-20 18:59:00,
2013-02-20 12:04:00,36.9,29.7,29.94,West,281,3.0,7.0,75,0.06,,,0.06,601,Wunderground v.1.15,2013-02-20 19:04:00,
2013-02-20 12:10:00,37.4,29.9,29.93,SSW,213,4.0,7.0,74,0.06,,,0.06,605,Wunderground v.1.15,2013-02-20 19:10:00,
2013-02-20 12:16:00,37.4,28.9,29.93,WSW,241,2.0,7.0,71,0.05,,,0.07,211,Wunderground v.1.15,2013-02-20 19:16:00,
2013-02-20 12:22:00,37.2,29.3,29.93,South,173,2.0,3.0,73,0.05,,,0.07,225,Wunderground v.1.15,2013-02-20 19:22:00,
2013-02-20 12:28:00,37.0,29.1,29.93,WNW,286,2.0,5.0,73,0.04,,,0.07,301,Wunderground v.1.15,2013-02-20 19:28:00,
2013-02-20 12:34:00,36.4,28.9,29.93,WSW,238,3.0,6.0,74,0.04,,,0.08,283,Wunderground v.1.15,2013-02-20 19:34:00,
2013-02-20 12:40:00,36.4,28.9,29.93,SSW,196,3.0,4.0,74,0.04,,,0.08,360,Wunderground v.1.15,2013-02-20 19:40:00,
2013-02-20 12:46:00,36.3,28.8,29.92,South,182,3.0,6.0,74,0.00,,,0.08,599,Wunderground v.1.15,2013-02-20 19:46:00,
2013-02-20 12:52:00,36.5,29.0,29.92,South,173,3.0,4.0,74,0.00,,,0.08,376,Wunderground v.1.15,2013-02-20 19:52:00,
2013-02-20 12:58:00,37.0,28.8,29.92,WNW,301,3.0,7.0,72,0.00,,,0.09,703,Wunderground v.1.15,2013-02-20 19:58:00,
2013-02-20 13:04:00,37.2,28.7,29.92,West,280,3.0,8.0,71,0.00,,,0.09,413,Wunderground v.1.15,2013-02-20 20:04:00,
2013-02-20 13:10:00,36.7,28.2,29.92,South,169,4.0,4.0,71,0.00,,,0.09,455,Wunderground v.1.15,2013-02-20 20:10:00,
2013-02-20 13:16:00,36.5,28.7,29.92,SW,221,4.0,6.0,73,0.00,,,0.10,225,Wunderground v.1.15,2013-02-20 20:16:00,
2013-02-20 13:22:00,36.0,27.5,29.92,SW,216,3.0,6.0,71,0.00,,,0.10,195,Wunderground v.1.15,2013-02-20 20:22:00,
2013-02-20 13:27:00,35.7,28.2,29.92,WSW,240,3.0,8.0,74,0.00,,,0.10,125,Wunderground v.1.15,2013-02-20 20:27:00,
2013-02-20 13:33:00,35.3,27.8,29.92,SSW,213,2.0,6.0,74,0.00,,,0.10,125,Wunderground v.1.15,2013-02-20 20:33:00,
2013-02-20 13:39:00,35.0,27.9,29.92,WSW,238,3.0,6.0,75,0.00,,,0.10,160,Wunderground v.1.15,2013-02-20 20:39:00,
2013-02-20 13:45:00,34.8,28.0,29.92,SSE,155,2.0,3.0,76,0.00,,,0.10,158,Wunderground v.1.15,2013-02-20 20:45:00,
2013-02-20 13:51:00,34.7,28.2,29.91,West,269,1.0,5.0,77,0.00,,,0.10,109,Wunderground v.1.15,2013-02-20 20:51:00,
2013-02-20 13:57:00,34.4,27.9,29.92,South,172,2.0,6.0,77,0.00,,,0.10,139,Wunderground v.1.15,2013-02-20 20:57:00,
2013-02-20 14:03:00,34.4,27.6,29.91,ESE,111,1.0,4.0,76,0.00,,,0.10,165,Wunderground v.1.15,2013-02-20 21:03:00,
2013-02-20 14:09:00,34.4,27.9,29.91,SSW,195,1.0,6.0,77,0.00,,,0.10,163,Wunderground v.1.15,2013-02-20 21:09:00,
2013-02-20 14:15:00,34.4,27.6,29.91,SSE,155,2.0,2.0,76,0.00,,,0.10,149,Wunderground v.1.15,2013-02-20 21:15:00,
2013-02-20 14:21:00,34.4,27.6,29.91,ESE,111,2.0,2.0,76,0.00,,,0.10,151,Wunderground v.1.15,2013-02-20 21:21:00,
2013-02-20 14:27:00,34.4,27.3,29.91,SSW,213,1.0,7.0,75,0.00,,,0.10,135,Wunderground v.1.15,2013-02-20 21:27:00,
2013-02-20 14:33:00,34.4,27.3,29.91,SW,218,3.0,6.0,75,0.00,,,0.10,121,Wunderground v.1.15,2013-02-20 21:33:00,
2013-02-20 14:39:00,34.1,27.3,29.91,SSE,149,3.0,7.0,76,0.00,,,0.10,109,Wunderground v.1.15,2013-02-20 21:39:00,
2013-02-20 14:45:00,33.9,26.8,29.91,ESE,121,3.0,6.0,75,0.00,,,0.10,125,Wunderground v.1.15,2013-02-20 21:45:00,
2013-02-20 14:51:00,33.8,26.7,29.91,SE,140,1.0,1.0,75,0.00,,,0.11,113,Wunderground v.1.15,2013-02-20 21:51:00,
2013-02-20 14:57:00,33.8,26.7,29.91,South,180,0.0,1.0,75,0.00,,,0.11,102,Wunderground v.1.15,2013-02-20 21:57:00,
2013-02-20 15:02:00,33.9,26.8,29.91,South,173,1.0,1.0,75,0.00,,,0.11,98,Wunderground v.1.15,2013-02-20 22:02:00,
2013-02-20 15:08:00,33.9,26.5,29.91,ENE,61,0.0,2.0,74,0.00,,,0.11,104,Wunderground v.1.15,2013-02-20 22:08:00,
2013-02-20 15:14:00,33.9,26.5,29.91,SSE,156,1.0,5.0,74,0.00,,,0.11,132,Wunderground v.1.15,2013-02-20 22:14:00,
2013-02-20 15:20:00,34.1,26.3,29.91,SW,236,1.0,2.0,73,0.00,,,0.11,381,Wunderground v.1.15,2013-02-20 22:20:00,
2013-02-20 15:26:00,34.4,27.0,29.91,SSE,161,1.0,2.0,74,0.00,,,0.11,369,Wunderground v.1.15,2013-02-20 22:26:00,
2013-02-20 15:32:00,34.9,26.8,29.90,SE,140,1.0,4.0,72,0.00,,,0.11,357,Wunderground v.1.15,2013-02-20 22:32:00,
2013-02-20 15:38:00,35.2,26.7,29.90,West,271,2.0,4.0,71,0.00,,,0.11,348,Wunderground v.1.15,2013-02-20 22:38:00,
2013-02-20 15:44:00,35.3,26.5,29.89,South,190,2.0,5.0,70,0.00,,,0.11,90,Wunderground v.1.15,2013-02-20 22:44:00,
2013-02-20 15:50:00,35.3,26.5,29.90,SW,216,2.0,2.0,70,0.00,,,0.11,47,Wunderground v.1.15,2013-02-20 22:50:00,
2013-02-20 15:56:00,35.2,26.0,29.90,South,188,1.0,4.0,69,0.00,,,0.11,74,Wunderground v.1.15,2013-02-20 22:56:00,
2013-02-20 16:02:00,35.0,25.9,29.90,SW,220,2.0,2.0,69,0.00,,,0.11,111,Wunderground v.1.15,2013-02-20 23:02:00,
2013-02-20 16:08:00,35.0,25.9,29.90,SSW,202,2.0,4.0,69,0.00,,,0.11,91,Wunderground v.1.15,2013-02-20 23:08:00,
2013-02-20 16:14:00,35.0,25.5,29.90,SE,124,1.0,4.0,68,0.00,,,0.11,69,Wunderground v.1.15,2013-02-20 23:14:00,
2013-02-20 16:20:00,34.9,25.8,29.90,ESE,123,1.0,1.0,69,0.00,,,0.11,49,Wunderground v.1.15,2013-02-20 23:20:00,
2013-02-20 16:25:00,34.8,25.7,29.90,South,190,1.0,4.0,69,0.00,,,0.11,40,Wunderground v.1.15,2013-02-20 23:25:00,
2013-02-20 16:31:00,34.6,25.5,29.91,SE,142,1.0,1.0,69,0.00,,,0.11,26,Wunderground v.1.15,2013-02-20 23:31:00,
2013-02-20 16:37:00,34.4,26.0,29.91,WSW,250,2.0,6.0,71,0.00,,,0.11,14,Wunderground v.1.15,2013-02-20 23:37:00,
2013-02-20 16:43:00,33.9,27.4,29.92,West,260,3.0,6.0,77,0.00,,,0.11,9,Wunderground v.1.15,2013-02-20 23:43:00,
2013-02-20 16:48:00,33.4,28.2,29.92,West,271,3.0,6.0,81,0.00,,,0.11,14,Wunderground v.1.15,2013-02-20 23:48:00,
2013-02-20 16:54:00,33.0,28.4,29.92,SSW,207,0.0,2.0,83,0.00,,,0.11,12,Wunderground v.1.15,2013-02-20 23:54:00,
2013-02-20 17:00:00,32.4,28.1,29.92,NW,307,1.0,1.0,84,0.00,,,0.11,12,Wunderground v.1.15,2013-02-21 00:00:00,
2013-02-20 17:06:00,32.1,27.8,29.92,NNE,18,1.0,4.0,84,0.00,,,0.11,30,Wunderground v.1.15,2013-02-21 00:06:00,
2013-02-20 17:12:00,31.7,27.7,29.92,SSW,203,1.0,5.0,85,0.00,,,0.11,26,Wunderground v.1.15,2013-02-21 00:12:00,
2013-02-20 17:26:00,31.4,27.7,29.93,SSW,203,0.0,2.0,86,0.00,,,0.11,12,Wunderground v.1.15,2013-02-21 00:26:00,
2013-02-20 17:31:00,31.2,27.5,29.93,SSW,203,0.0,0.0,86,0.00,,,0.11,7,Wunderground v.1.15,2013-02-21 00:31:00,
2013-02-20 17:37:00,31.1,27.4,29.93,West,267,0.0,1.0,86,0.00,,,0.11,5,Wunderground v.1.15,2013-02-21 00:37:00,
2013-02-20 17:43:00,30.9,27.5,29.93,WNW,283,1.0,2.0,87,0.00,,,0.11,0,Wunderground v.1.15,2013-02-21 00:43:00,
2013-02-20 17:49:00,30.8,27.7,29.93,West,277,2.0,2.0,88,0.00,,,0.11,0,Wunderground v.1.15,2013-02-21 00:49:00,
2013-02-20 17:55:00,30.5,27.6,29.94,SSE,156,2.0,2.0,89,0.00,,,0.11,0,Wunderground v.1.15,2013-02-21 00:55:00,
2013-02-20 18:01:00,30.1,27.3,29.94,West,265,2.0,2.0,89,0.00,,,0.11,0,Wunderground v.1.15,2013-02-21 01:01:00,
2013-02-20 18:07:00,29.9,27.1,29.93,SSW,203,2.0,5.0,89,0.00,,,0.11,0,Wunderground v.1.15,2013-02-21 01:07:00,
2013-02-20 18:13:00,29.7,26.9,29.93,SW,228,1.0,2.0,89,0.00,,,0.11,0,Wunderground v.1.15,2013-02-21 01:13:00,
2013-02-20 18:19:00,29.5,26.7,29.94,SW,232,0.0,2.0,89,0.00,,,0.11,0,Wunderground v.1.15,2013-02-21 01:19:00,
2013-02-20 18:25:00,29.4,26.6,29.94,West,278,1.0,2.0,89,0.00,,,0.11,0,Wunderground v.1.15,2013-02-21 01:25:00,
2013-02-20 18:31:00,29.2,26.4,29.94,WNW,292,1.0,1.0,89,0.00,,,0.11,0,Wunderground v.1.15,2013-02-21 01:31:00,
2013-02-20 18:36:00,29.1,26.3,29.94,WNW,292,0.0,2.0,89,0.00,,,0.11,0,Wunderground v.1.15,2013-02-21 01:36:00,
2013-02-20 18:42:00,29.1,26.3,29.95,WNW,292,0.0,0.0,89,0.00,,,0.11,0,Wunderground v.1.15,2013-02-21 01:42:00,
2013-02-20 18:48:00,29.0,26.4,29.95,WNW,292,0.0,0.0,90,0.00,,,0.11,0,Wunderground v.1.15,2013-02-21 01:48:00,
2013-02-20 18:54:00,28.9,26.3,29.95,WNW,292,0.0,0.0,90,0.00,,,0.11,0,Wunderground v.1.15,2013-02-21 01:54:00,
2013-02-20 19:00:00,28.8,26.2,29.95,WNW,292,0.0,2.0,90,0.00,,,0.11,0,Wunderground v.1.15,2013-02-21 02:00:00,
2013-02-20 19:06:00,28.7,26.1,29.95,WNW,292,0.0,2.0,90,0.00,,,0.11,0,Wunderground v.1.15,2013-02-21 02:06:00,
2013-02-20 19:12:00,28.6,26.0,29.96,WNW,292,0.0,0.0,90,0.00,,,0.11,0,Wunderground v.1.15,2013-02-21 02:12:00,
2013-02-20 19:18:00,28.5,25.9,29.95,WNW,292,0.0,0.0,90,0.00,,,0.11,0,Wunderground v.1.15,2013-02-21 02:18:00,
2013-02-20 19:24:00,28.3,25.7,29.96,WNW,292,0.0,0.0,90,0.00,,,0.11,0,Wunderground v.1.15,2013-02-21 02:24:00,
2013-02-20 19:30:00,28.1,25.5,29.96,WNW,292,0.0,0.0,90,0.00,,,0.11,0,Wunderground v.1.15,2013-02-21 02:30:00,
2013-02-20 19:36:00,27.7,25.2,29.96,WNW,292,0.0,1.0,90,0.00,,,0.11,0,Wunderground v.1.15,2013-02-21 02:36:00,
2013-02-20 19:42:00,27.5,25.0,29.96,WNW,292,0.0,0.0,90,0.00,,,0.11,0,Wunderground v.1.15,2013-02-21 02:42:00,
2013-02-20 19:48:00,27.2,24.4,29.96,WNW,292,0.0,0.0,89,0.00,,,0.11,0,Wunderground v.1.15,2013-02-21 02:48:00,
2013-02-20 19:53:00,26.9,24.1,29.96,West,272,0.0,3.0,89,0.00,,,0.11,0,Wunderground v.1.15,2013-02-21 02:53:00,
2013-02-20 19:59:00,26.5,23.7,29.96,West,273,0.0,3.0,89,0.00,,,0.11,0,Wunderground v.1.15,2013-02-21 02:59:00,
2013-02-20 20:05:00,26.2,23.4,29.96,West,273,0.0,1.0,89,0.00,,,0.11,0,Wunderground v.1.15,2013-02-21 03:05:00,
2013-02-20 20:11:00,25.8,23.0,29.97,West,272,0.0,0.0,89,0.00,,,0.11,0,Wunderground v.1.15,2013-02-21 03:11:00,
2013-02-20 20:17:00,25.5,22.7,29.97,West,267,1.0,2.0,89,0.00,,,0.11,0,Wunderground v.1.15,2013-02-21 03:17:00,
2013-02-20 20:23:00,25.3,22.5,29.97,WSW,244,1.0,4.0,89,0.00,,,0.11,0,Wunderground v.1.15,2013-02-21 03:23:00,
2013-02-20 20:29:00,25.1,22.6,29.97,WSW,244,1.0,4.0,90,0.00,,,0.11,0,Wunderground v.1.15,2013-02-21 03:29:00,
2013-02-20 20:35:00,24.8,22.3,29.97,WSW,244,0.0,2.0,90,0.00,,,0.11,0,Wunderground v.1.15,2013-02-21 03:35:00,
2013-02-20 20:41:00,24.5,21.7,29.97,WSW,244,0.0,1.0,89,0.00,,,0.11,0,Wunderground v.1.15,2013-02-21 03:41:00,
2013-02-20 20:47:00,24.3,21.8,29.97,WSW,244,0.0,1.0,90,0.00,,,0.11,0,Wunderground v.1.15,2013-02-21 03:47:00,
2013-02-20 20:53:00,24.1,21.6,29.98,WSW,244,0.0,1.0,90,0.00,,,0.11,0,Wunderground v.1.15,2013-02-21 03:53:00,
2013-02-20 20:58:00,24.0,21.5,29.98,WSW,244,0.0,1.0,90,0.00,,,0.11,0,Wunderground v.1.15,2013-02-21 03:58:00,
2013-02-20 21:04:00,23.9,21.4,29.98,WSW,244,0.0,2.0,90,0.00,,,0.11,0,Wunderground v.1.15,2013-02-21 04:04:00,
2013-02-20 21:09:00,23.9,21.7,29.98,WSW,244,0.0,2.0,91,0.00,,,0.11,0,Wunderground v.1.15,2013-02-21 04:09:00,
2013-02-20 21:15:00,23.8,21.6,29.98,WNW,299,0.0,1.0,91,0.00,,,0.11,0,Wunderground v.1.15,2013-02-21 04:15:00,
2013-02-20 21:21:00,23.8,21.6,29.98,WNW,286,0.0,2.0,91,0.00,,,0.11,0,Wunderground v.1.15,2013-02-21 04:21:00,
2013-02-20 21:27:00,23.7,21.5,29.98,WNW,285,0.0,2.0,91,0.00,,,0.11,0,Wunderground v.1.15,2013-02-21 04:27:00,
2013-02-20 21:33:00,23.7,21.5,29.98,WNW,285,0.0,0.0,91,0.00,,,0.11,0,Wunderground v.1.15,2013-02-21 04:33:00,
2013-02-20 21:39:00,23.7,21.7,29.98,SW,235,0.0,1.0,92,0.00,,,0.11,0,Wunderground v.1.15,2013-02-21 04:39:00,
2013-02-20 21:45:00,23.7,21.5,29.98,SW,235,0.0,1.0,91,0.00,,,0.11,0,Wunderground v.1.15,2013-02-21 04:45:00,
2013-02-20 21:51:00,23.5,21.3,29.99,SW,235,0.0,0.0,91,0.00,,,0.11,0,Wunderground v.1.15,2013-02-21 04:51:00,
2013-02-20 21:57:00,23.4,21.2,29.99,SW,235,0.0,0.0,91,0.00,,,0.11,0,Wunderground v.1.15,2013-02-21 04:57:00,
2013-02-20 22:00:00,23.3,21.1,29.99,SW,234,0.0,0.0,91,0.00,,,0.11,0,Wunderground v.1.15,2013-02-21 05:00:00,
2013-02-20 22:01:00,23.2,21.0,29.99,SW,234,0.0,0.0,91,0.00,,,0.11,0,Wunderground v.1.15,2013-02-21 05:01:00,
2013-02-20 22:02:00,23.2,21.0,29.99,SW,235,0.0,0.0,91,0.00,,,0.11,0,Wunderground v.1.15,2013-02-21 05:02:00,
2013-02-20 22:03:00,23.2,21.0,29.99,SW,235,0.0,1.0,91,0.00,,,0.11,0,Wunderground v.1.15,2013-02-21 05:03:00,
2013-02-20 22:08:00,22.9,20.7,29.99,SW,235,0.0,1.0,91,0.00,,,0.11,0,Wunderground v.1.15,2013-02-21 05:08:00,
2013-02-20 22:14:00,22.7,20.2,29.99,SW,235,0.0,0.0,90,0.00,,,0.11,0,Wunderground v.1.15,2013-02-21 05:14:00,
2013-02-20 22:20:00,22.5,20.0,29.99,SW,226,0.0,1.0,90,0.00,,,0.11,0,Wunderground v.1.15,2013-02-21 05:20:00,
2013-02-20 22:26:00,22.2,19.7,29.99,SE,137,0.0,1.0,90,0.00,,,0.11,0,Wunderground v.1.15,2013-02-21 05:26:00,
2013-02-20 22:32:00,22.5,20.3,29.99,West,263,1.0,3.0,91,0.00,,,0.11,0,Wunderground v.1.15,2013-02-21 05:32:00,
2013-02-20 22:38:00,22.5,20.3,29.99,SW,218,1.0,3.0,91,0.00,,,0.11,0,Wunderground v.1.15,2013-02-21 05:38:00,
2013-02-20 22:44:00,22.7,20.5,30.00,NW,304,1.0,1.0,91,0.00,,,0.11,0,Wunderground v.1.15,2013-02-21 05:44:00,
2013-02-20 22:50:00,22.8,20.8,30.00,West,262,1.0,2.0,92,0.00,,,0.11,0,Wunderground v.1.15,2013-02-21 05:50:00,
2013-02-20 22:56:00,22.9,20.7,30.00,WNW,295,1.0,2.0,91,0.00,,,0.11,0,Wunderground v.1.15,2013-02-21 05:56:00,
2013-02-20 23:01:00,23.1,21.1,30.00,West,269,1.0,1.0,92,0.00,,,0.11,0,Wunderground v.1.15,2013-02-21 06:01:00,
2013-02-20 23:07:00,23.1,20.9,30.00,West,269,1.0,1.0,91,0.00,,,0.11,0,Wunderground v.1.15,2013-02-21 06:07:00,
2013-02-20 23:13:00,23.1,20.9,30.00,NNW,331,1.0,1.0,91,0.00,,,0.11,0,Wunderground v.1.15,2013-02-21 06:13:00,
2013-02-20 23:19:00,23.1,20.9,30.00,NNW,330,0.0,1.0,91,0.00,,,0.11,0,Wunderground v.1.15,2013-02-21 06:19:00,
2013-02-20 23:24:00,23.0,20.8,30.00,NNW,330,0.0,1.0,91,0.00,,,0.11,0,Wunderground v.1.15,2013-02-21 06:24:00,
2013-02-20 23:30:00,22.8,20.3,30.00,NNW,330,0.0,0.0,90,0.00,,,0.11,0,Wunderground v.1.15,2013-02-21 06:30:00,
2013-02-20 23:36:00,22.6,20.1,30.00,NNW,330,0.0,0.0,90,0.00,,,0.11,0,Wunderground v.1.15,2013-02-21 06:36:00,
2013-02-20 23:42:00,22.4,19.9,30.00,NNW,330,0.0,0.0,90,0.00,,,0.11,0,Wunderground v.1.15,2013-02-21 06:42:00,
2013-02-20 23:48:00,22.1,19.4,30.00,NNW,330,0.0,1.0,89,0.00,,,0.11,0,Wunderground v.1.15,2013-02-21 06:48:00,
2013-02-20 23:53:00,21.8,19.1,30.00,NNW,330,0.0,1.0,89,0.00,,,0.11,0,Wunderground v.1.15,2013-02-21 06:53:00,
2013-02-20 23:59:00,21.7,19.0,30.01,NNW,330,0.0,2.0,89,0.00,,,0.11,0,Wunderground v.1.15,2013-02-21 06:59:00,